owner,sensor,date,latitude,longitude,vertical_datum,wind_speed,wind_to_direction,wind_speed_of_gust,qcFlag 
COMPS,ioos:station:USF.COMPS:TAR:1,2014-04-01T00:00:00Z,28.1560,-82.7580,7.0,0.79,325.47,1.07,'1111122,1111122,1111122' 
COMPS,ioos:station:USF.COMPS:TAR:1,2014-04-01T00:06:00Z,28.1560,-82.7580,7.0,0.61,333.24,0.88,'1111122,1111122,1111122' 
COMPS,ioos:station:USF.COMPS:TAR:1,2014-04-01T00:12:00Z,28.1560,-82.7580,7.0,0.42,341.77,0.78,'1111122,1111122,1111122' 
COMPS,ioos:station:USF.COMPS:TAR:1,2014-04-01T00:18:00Z,28.1560,-82.7580,7.0,0.44,348.18,0.68,'1111122,1111122,1111122' 
COMPS,ioos:station:USF.COMPS:TAR:1,2014-04-01T00:24:00Z,28.1560,-82.7580,7.0,0.5,339.25,0.68,'1111122,1111122,1111122' 
COMPS,ioos:station:USF.COMPS:TAR:1,2014-04-01T00:30:00Z,28.1560,-82.7580,7.0,0.37,353.3,0.49,'1111122,1111122,1111122' 
COMPS,ioos:station:USF.COMPS:TAR:1,2014-04-01T00:36:00Z,28.1560,-82.7580,7.0,0.3,352.74,0.49,'1111122,1111122,1111122' 
COMPS,ioos:station:USF.COMPS:TAR:1,2014-04-01T00:42:00Z,28.1560,-82.7580,7.0,0.0,336.85,0.19,'1114422,1111122,1111122' 
COMPS,ioos:station:USF.COMPS:TAR:1,2014-04-01T00:48:00Z,28.1560,-82.7580,7.0,0.47,323.96,0.68,'1111122,1111122,1111122' 
COMPS,ioos:station:USF.COMPS:TAR:1,2014-04-01T00:54:00Z,28.1560,-82.7580,7.0,0.12,317.07,0.58,'1111122,1111122,1111122' 
COMPS,ioos:station:USF.COMPS:TAR:1,2014-04-01T01:00:00Z,28.1560,-82.7580,7.0,0.3,332.94,0.68,'1111122,1111122,1111122' 
COMPS,ioos:station:USF.COMPS:TAR:1,2014-04-01T01:06:00Z,28.1560,-82.7580,7.0,0.46,336.82,0.68,'1111122,1111122,1111122' 
COMPS,ioos:station:USF.COMPS:TAR:1,2014-04-01T01:12:00Z,28.1560,-82.7580,7.0,0.44,329.05,0.68,'1111122,1111122,1111122' 
COMPS,ioos:station:USF.COMPS:TAR:1,2014-04-01T01:18:00Z,28.1560,-82.7580,7.0,0.29,333.3,0.58,'1111122,1111122,1111122' 
COMPS,ioos:station:USF.COMPS:TAR:1,2014-04-01T01:24:00Z,28.1560,-82.7580,7.0,0.62,13.69,1.07,'1111122,1111122,1111122' 
COMPS,ioos:station:USF.COMPS:TAR:1,2014-04-01T01:30:00Z,28.1560,-82.7580,7.0,1.04,35.97,1.27,'1111122,1111122,1111122' 
COMPS,ioos:station:USF.COMPS:TAR:1,2014-04-01T01:36:00Z,28.1560,-82.7580,7.0,1.01,41.43,1.27,'1111122,1111122,1111122' 
COMPS,ioos:station:USF.COMPS:TAR:1,2014-04-01T01:42:00Z,28.1560,-82.7580,7.0,0.8,37.64,1.17,'1111122,1111122,1111122' 
COMPS,ioos:station:USF.COMPS:TAR:1,2014-04-01T01:48:00Z,28.1560,-82.7580,7.0,0.39,173.17,1.07,'1111122,1111122,1111122' 
COMPS,ioos:station:USF.COMPS:TAR:1,2014-04-01T01:54:00Z,28.1560,-82.7580,7.0,0.53,184.0,0.97,'1111122,1111122,1111122' 
COMPS,ioos:station:USF.COMPS:TAR:1,2014-04-01T02:00:00Z,28.1560,-82.7580,7.0,0.84,198.08,1.37,'1111122,1111122,1111122' 
COMPS,ioos:station:USF.COMPS:TAR:1,2014-04-01T02:06:00Z,28.1560,-82.7580,7.0,0.12,206.07,0.78,'1111122,1111122,1111122' 
COMPS,ioos:station:USF.COMPS:TAR:1,2014-04-01T02:12:00Z,28.1560,-82.7580,7.0,0.33,176.77,0.88,'1111122,1111122,1111122' 
COMPS,ioos:station:USF.COMPS:TAR:1,2014-04-01T02:18:00Z,28.1560,-82.7580,7.0,0.1,172.36,0.39,'1111122,1111122,1111122' 
COMPS,ioos:station:USF.COMPS:TAR:1,2014-04-01T02:24:00Z,28.1560,-82.7580,7.0,0.25,322.4,0.58,'1111122,1111122,1111122' 
COMPS,ioos:station:USF.COMPS:TAR:1,2014-04-01T02:30:00Z,28.1560,-82.7580,7.0,0.41,340.39,0.68,'1111122,1111122,1111122' 
COMPS,ioos:station:USF.COMPS:TAR:1,2014-04-01T02:36:00Z,28.1560,-82.7580,7.0,0.3,338.94,0.68,'1111122,1111122,1111122' 
COMPS,ioos:station:USF.COMPS:TAR:1,2014-04-01T02:42:00Z,28.1560,-82.7580,7.0,0.27,178.75,0.58,'1111122,1111122,1111122' 
COMPS,ioos:station:USF.COMPS:TAR:1,2014-04-01T02:48:00Z,28.1560,-82.7580,7.0,0.18,50.52,0.49,'1111122,1111122,1111122' 
COMPS,ioos:station:USF.COMPS:TAR:1,2014-04-01T02:54:00Z,28.1560,-82.7580,7.0,0.17,39.99,0.39,'1111122,1111122,1111122' 
COMPS,ioos:station:USF.COMPS:TAR:1,2014-04-01T03:00:00Z,28.1560,-82.7580,7.0,0.53,166.19,0.68,'1111122,1111122,1111122' 
COMPS,ioos:station:USF.COMPS:TAR:1,2014-04-01T03:06:00Z,28.1560,-82.7580,7.0,0.61,181.21,0.78,'1111122,1111122,1111122' 
COMPS,ioos:station:USF.COMPS:TAR:1,2014-04-01T03:12:00Z,28.1560,-82.7580,7.0,0.43,197.99,0.68,'1111122,1111122,1111122' 
COMPS,ioos:station:USF.COMPS:TAR:1,2014-04-01T03:18:00Z,28.1560,-82.7580,7.0,0.16,231.76,0.49,'1111122,1111122,1111122' 
COMPS,ioos:station:USF.COMPS:TAR:1,2014-04-01T03:24:00Z,28.1560,-82.7580,7.0,0.02,236.41,0.19,'1111122,1111122,1111122' 
COMPS,ioos:station:USF.COMPS:TAR:1,2014-04-01T04:06:00Z,28.1560,-82.7580,7.0,0.01,269.93,0.19,'1111122,1111122,1111122' 
COMPS,ioos:station:USF.COMPS:TAR:1,2014-04-01T04:12:00Z,28.1560,-82.7580,7.0,0.24,33.14,0.49,'1111122,1111122,1111122' 
COMPS,ioos:station:USF.COMPS:TAR:1,2014-04-01T04:18:00Z,28.1560,-82.7580,7.0,0.07,26.09,0.39,'1111122,1111122,1111122' 
COMPS,ioos:station:USF.COMPS:TAR:1,2014-04-01T04:24:00Z,28.1560,-82.7580,7.0,0.19,116.05,0.49,'1111122,1111122,1111122' 
COMPS,ioos:station:USF.COMPS:TAR:1,2014-04-01T04:30:00Z,28.1560,-82.7580,7.0,0.61,170.88,0.97,'1111122,1111122,1111122' 
COMPS,ioos:station:USF.COMPS:TAR:1,2014-04-01T04:36:00Z,28.1560,-82.7580,7.0,0.59,182.71,0.88,'1111122,1111122,1111122' 
COMPS,ioos:station:USF.COMPS:TAR:1,2014-04-01T04:42:00Z,28.1560,-82.7580,7.0,0.03,181.81,0.29,'1111122,1111122,1111122' 
COMPS,ioos:station:USF.COMPS:TAR:1,2014-04-01T04:54:00Z,28.1560,-82.7580,7.0,0.0,181.81,0.09,'1114422,1111122,1111122' 
COMPS,ioos:station:USF.COMPS:TAR:1,2014-04-01T05:00:00Z,28.1560,-82.7580,7.0,0.48,36.29,0.88,'1111122,1111122,1111122' 
COMPS,ioos:station:USF.COMPS:TAR:1,2014-04-01T05:06:00Z,28.1560,-82.7580,7.0,0.28,92.83,0.58,'1111122,1111122,1111122' 
COMPS,ioos:station:USF.COMPS:TAR:1,2014-04-01T05:12:00Z,28.1560,-82.7580,7.0,0.35,160.81,0.58,'1111122,1111122,1111122' 
COMPS,ioos:station:USF.COMPS:TAR:1,2014-04-01T05:18:00Z,28.1560,-82.7580,7.0,0.84,177.42,1.07,'1111122,1111122,1111122' 
COMPS,ioos:station:USF.COMPS:TAR:1,2014-04-01T05:24:00Z,28.1560,-82.7580,7.0,0.33,183.19,0.97,'1111122,1111122,1111122' 
COMPS,ioos:station:USF.COMPS:TAR:1,2014-04-01T05:30:00Z,28.1560,-82.7580,7.0,0.01,178.95,0.09,'1111122,1111122,1111122' 
COMPS,ioos:station:USF.COMPS:TAR:1,2014-04-01T05:36:00Z,28.1560,-82.7580,7.0,0.22,98.95,0.49,'1111122,1111122,1111122' 
COMPS,ioos:station:USF.COMPS:TAR:1,2014-04-01T05:42:00Z,28.1560,-82.7580,7.0,0.05,114.08,0.29,'1111122,1111122,1111122' 
COMPS,ioos:station:USF.COMPS:TAR:1,2014-04-01T05:48:00Z,28.1560,-82.7580,7.0,0.35,52.89,0.68,'1111122,1111122,1111122' 
COMPS,ioos:station:USF.COMPS:TAR:1,2014-04-01T05:54:00Z,28.1560,-82.7580,7.0,0.26,157.61,0.68,'1111122,1111122,1111122' 
COMPS,ioos:station:USF.COMPS:TAR:1,2014-04-01T06:06:00Z,28.1560,-82.7580,7.0,0.38,68.92,0.58,'1111122,1111122,1111122' 
COMPS,ioos:station:USF.COMPS:TAR:1,2014-04-01T06:12:00Z,28.1560,-82.7580,7.0,0.03,98.59,0.29,'1111122,1111122,1111122' 
COMPS,ioos:station:USF.COMPS:TAR:1,2014-04-01T06:18:00Z,28.1560,-82.7580,7.0,0.03,72.79,0.29,'1111122,1111122,1111122' 
COMPS,ioos:station:USF.COMPS:TAR:1,2014-04-01T06:24:00Z,28.1560,-82.7580,7.0,0.29,16.94,0.78,'1111122,1111122,1111122' 
COMPS,ioos:station:USF.COMPS:TAR:1,2014-04-01T06:30:00Z,28.1560,-82.7580,7.0,0.13,41.56,0.49,'1111122,1111122,1111122' 
COMPS,ioos:station:USF.COMPS:TAR:1,2014-04-01T06:36:00Z,28.1560,-82.7580,7.0,0.5,39.81,0.97,'1111122,1111122,1111122' 
COMPS,ioos:station:USF.COMPS:TAR:1,2014-04-01T06:42:00Z,28.1560,-82.7580,7.0,0.19,106.53,0.49,'1111122,1111122,1111122' 
COMPS,ioos:station:USF.COMPS:TAR:1,2014-04-01T06:48:00Z,28.1560,-82.7580,7.0,0.29,85.59,0.68,'1111122,1111122,1111122' 
COMPS,ioos:station:USF.COMPS:TAR:1,2014-04-01T06:54:00Z,28.1560,-82.7580,7.0,0.14,110.58,0.39,'1111122,1111122,1111122' 
COMPS,ioos:station:USF.COMPS:TAR:1,2014-04-01T07:00:00Z,28.1560,-82.7580,7.0,0.29,83.85,0.78,'1111122,1111122,1111122' 
COMPS,ioos:station:USF.COMPS:TAR:1,2014-04-01T07:06:00Z,28.1560,-82.7580,7.0,0.5,95.96,0.88,'1111122,1111122,1111122' 
COMPS,ioos:station:USF.COMPS:TAR:1,2014-04-01T07:12:00Z,28.1560,-82.7580,7.0,0.41,110.8,0.58,'1111122,1111122,1111122' 
COMPS,ioos:station:USF.COMPS:TAR:1,2014-04-01T07:18:00Z,28.1560,-82.7580,7.0,0.25,108.94,0.49,'1111122,1111122,1111122' 
COMPS,ioos:station:USF.COMPS:TAR:1,2014-04-01T07:24:00Z,28.1560,-82.7580,7.0,0.31,98.42,0.58,'1111122,1111122,1111122' 
COMPS,ioos:station:USF.COMPS:TAR:1,2014-04-01T07:30:00Z,28.1560,-82.7580,7.0,0.18,140.05,0.58,'1111122,1111122,1111122' 
COMPS,ioos:station:USF.COMPS:TAR:1,2014-04-01T07:36:00Z,28.1560,-82.7580,7.0,0.26,145.78,0.49,'1111122,1111122,1111122' 
COMPS,ioos:station:USF.COMPS:TAR:1,2014-04-01T07:42:00Z,28.1560,-82.7580,7.0,0.13,105.81,0.49,'1111122,1111122,1111122' 
COMPS,ioos:station:USF.COMPS:TAR:1,2014-04-01T07:48:00Z,28.1560,-82.7580,7.0,0.33,70.55,1.07,'1111122,1111122,1111122' 
COMPS,ioos:station:USF.COMPS:TAR:1,2014-04-01T07:54:00Z,28.1560,-82.7580,7.0,0.6,70.08,1.27,'1111122,1111122,1111122' 
COMPS,ioos:station:USF.COMPS:TAR:1,2014-04-01T08:00:00Z,28.1560,-82.7580,7.0,0.87,99.51,2.45,'1111122,1111122,1111122' 
COMPS,ioos:station:USF.COMPS:TAR:1,2014-04-01T08:06:00Z,28.1560,-82.7580,7.0,0.78,121.92,1.66,'1111122,1111122,1111122' 
COMPS,ioos:station:USF.COMPS:TAR:1,2014-04-01T08:12:00Z,28.1560,-82.7580,7.0,0.73,94.5,1.46,'1111122,1111122,1111122' 
COMPS,ioos:station:USF.COMPS:TAR:1,2014-04-01T08:18:00Z,28.1560,-82.7580,7.0,0.53,69.61,1.46,'1111122,1111122,1111122' 
COMPS,ioos:station:USF.COMPS:TAR:1,2014-04-01T08:24:00Z,28.1560,-82.7580,7.0,0.71,67.8,1.17,'1111122,1111122,1111122' 
COMPS,ioos:station:USF.COMPS:TAR:1,2014-04-01T08:30:00Z,28.1560,-82.7580,7.0,0.58,96.36,1.17,'1111122,1111122,1111122' 
COMPS,ioos:station:USF.COMPS:TAR:1,2014-04-01T08:36:00Z,28.1560,-82.7580,7.0,0.71,101.93,2.05,'1111122,1111122,1111122' 
COMPS,ioos:station:USF.COMPS:TAR:1,2014-04-01T08:42:00Z,28.1560,-82.7580,7.0,0.46,94.93,1.37,'1111122,1111122,1111122' 
COMPS,ioos:station:USF.COMPS:TAR:1,2014-04-01T08:48:00Z,28.1560,-82.7580,7.0,0.55,60.22,1.56,'1111122,1111122,1111122' 
COMPS,ioos:station:USF.COMPS:TAR:1,2014-04-01T08:54:00Z,28.1560,-82.7580,7.0,0.6,75.51,1.37,'1111122,1111122,1111122' 
COMPS,ioos:station:USF.COMPS:TAR:1,2014-04-01T09:00:00Z,28.1560,-82.7580,7.0,0.64,96.92,1.27,'1111122,1111122,1111122' 
COMPS,ioos:station:USF.COMPS:TAR:1,2014-04-01T09:06:00Z,28.1560,-82.7580,7.0,0.58,87.34,1.17,'1111122,1111122,1111122' 
COMPS,ioos:station:USF.COMPS:TAR:1,2014-04-01T09:12:00Z,28.1560,-82.7580,7.0,0.72,75.39,1.27,'1111122,1111122,1111122' 
COMPS,ioos:station:USF.COMPS:TAR:1,2014-04-01T09:18:00Z,28.1560,-82.7580,7.0,0.74,86.4,1.46,'1111122,1111122,1111122' 
COMPS,ioos:station:USF.COMPS:TAR:1,2014-04-01T09:24:00Z,28.1560,-82.7580,7.0,0.51,124.46,1.17,'1111122,1111122,1111122' 
COMPS,ioos:station:USF.COMPS:TAR:1,2014-04-01T09:30:00Z,28.1560,-82.7580,7.0,0.45,98.56,1.07,'1111122,1111122,1111122' 
COMPS,ioos:station:USF.COMPS:TAR:1,2014-04-01T09:36:00Z,28.1560,-82.7580,7.0,0.68,96.46,1.17,'1111122,1111122,1111122' 
COMPS,ioos:station:USF.COMPS:TAR:1,2014-04-01T09:42:00Z,28.1560,-82.7580,7.0,0.47,104.25,1.07,'1111122,1111122,1111122' 
COMPS,ioos:station:USF.COMPS:TAR:1,2014-04-01T09:48:00Z,28.1560,-82.7580,7.0,0.24,91.72,0.78,'1111122,1111122,1111122' 
COMPS,ioos:station:USF.COMPS:TAR:1,2014-04-01T09:54:00Z,28.1560,-82.7580,7.0,0.24,102.94,0.88,'1111122,1111122,1111122' 
COMPS,ioos:station:USF.COMPS:TAR:1,2014-04-01T10:00:00Z,28.1560,-82.7580,7.0,0.22,125.92,0.49,'1111122,1111122,1111122' 
COMPS,ioos:station:USF.COMPS:TAR:1,2014-04-01T10:06:00Z,28.1560,-82.7580,7.0,0.44,102.05,0.97,'1111122,1111122,1111122' 
COMPS,ioos:station:USF.COMPS:TAR:1,2014-04-01T10:12:00Z,28.1560,-82.7580,7.0,0.48,95.59,0.88,'1111122,1111122,1111122' 
COMPS,ioos:station:USF.COMPS:TAR:1,2014-04-01T10:18:00Z,28.1560,-82.7580,7.0,0.47,96.9,0.68,'1111122,1111122,1111122' 
COMPS,ioos:station:USF.COMPS:TAR:1,2014-04-01T10:24:00Z,28.1560,-82.7580,7.0,0.41,85.71,0.97,'1111122,1111122,1111122' 
COMPS,ioos:station:USF.COMPS:TAR:1,2014-04-01T10:30:00Z,28.1560,-82.7580,7.0,0.65,82.94,1.17,'1111122,1111122,1111122' 
COMPS,ioos:station:USF.COMPS:TAR:1,2014-04-01T10:36:00Z,28.1560,-82.7580,7.0,0.58,88.4,1.07,'1111122,1111122,1111122' 
COMPS,ioos:station:USF.COMPS:TAR:1,2014-04-01T10:42:00Z,28.1560,-82.7580,7.0,0.42,82.7,0.78,'1111122,1111122,1111122' 
COMPS,ioos:station:USF.COMPS:TAR:1,2014-04-01T10:48:00Z,28.1560,-82.7580,7.0,0.35,83.27,0.68,'1111122,1111122,1111122' 
COMPS,ioos:station:USF.COMPS:TAR:1,2014-04-01T10:54:00Z,28.1560,-82.7580,7.0,0.04,67.6,0.39,'1111122,1111122,1111122' 
COMPS,ioos:station:USF.COMPS:TAR:1,2014-04-01T11:00:00Z,28.1560,-82.7580,7.0,0.19,58.32,0.78,'1111122,1111122,1111122' 
COMPS,ioos:station:USF.COMPS:TAR:1,2014-04-01T11:06:00Z,28.1560,-82.7580,7.0,0.56,66.42,1.17,'1111122,1111122,1111122' 
COMPS,ioos:station:USF.COMPS:TAR:1,2014-04-01T11:12:00Z,28.1560,-82.7580,7.0,0.32,85.79,0.68,'1111122,1111122,1111122' 
COMPS,ioos:station:USF.COMPS:TAR:1,2014-04-01T11:18:00Z,28.1560,-82.7580,7.0,0.43,67.84,0.68,'1111122,1111122,1111122' 
COMPS,ioos:station:USF.COMPS:TAR:1,2014-04-01T11:24:00Z,28.1560,-82.7580,7.0,0.51,82.28,1.07,'1111122,1111122,1111122' 
COMPS,ioos:station:USF.COMPS:TAR:1,2014-04-01T11:30:00Z,28.1560,-82.7580,7.0,0.8,50.39,1.27,'1111122,1111122,1111122' 
COMPS,ioos:station:USF.COMPS:TAR:1,2014-04-01T11:36:00Z,28.1560,-82.7580,7.0,0.9,36.95,1.37,'1111122,1111122,1111122' 
COMPS,ioos:station:USF.COMPS:TAR:1,2014-04-01T11:42:00Z,28.1560,-82.7580,7.0,0.86,37.99,1.17,'1111122,1111122,1111122' 
COMPS,ioos:station:USF.COMPS:TAR:1,2014-04-01T11:48:00Z,28.1560,-82.7580,7.0,0.91,35.95,1.27,'1111122,1111122,1111122' 
COMPS,ioos:station:USF.COMPS:TAR:1,2014-04-01T11:54:00Z,28.1560,-82.7580,7.0,0.99,39.08,1.46,'1111122,1111122,1111122' 
COMPS,ioos:station:USF.COMPS:TAR:1,2014-04-01T12:00:00Z,28.1560,-82.7580,7.0,0.89,46.1,1.17,'1111122,1111122,1111122' 
COMPS,ioos:station:USF.COMPS:TAR:1,2014-04-01T12:06:00Z,28.1560,-82.7580,7.0,0.83,49.0,1.66,'1111122,1111122,1111122' 
COMPS,ioos:station:USF.COMPS:TAR:1,2014-04-01T12:12:00Z,28.1560,-82.7580,7.0,0.99,46.77,1.86,'1111122,1111122,1111122' 
COMPS,ioos:station:USF.COMPS:TAR:1,2014-04-01T12:18:00Z,28.1560,-82.7580,7.0,0.78,63.42,1.56,'1111122,1111122,1111122' 
COMPS,ioos:station:USF.COMPS:TAR:1,2014-04-01T12:24:00Z,28.1560,-82.7580,7.0,0.98,46.36,1.76,'1111122,1111122,1111122' 
COMPS,ioos:station:USF.COMPS:TAR:1,2014-04-01T12:30:00Z,28.1560,-82.7580,7.0,0.87,46.41,1.66,'1111122,1111122,1111122' 
COMPS,ioos:station:USF.COMPS:TAR:1,2014-04-01T12:36:00Z,28.1560,-82.7580,7.0,1.21,55.59,2.25,'1111122,1111122,1111122' 
COMPS,ioos:station:USF.COMPS:TAR:1,2014-04-01T12:42:00Z,28.1560,-82.7580,7.0,0.95,60.52,1.46,'1111122,1111122,1111122' 
COMPS,ioos:station:USF.COMPS:TAR:1,2014-04-01T12:48:00Z,28.1560,-82.7580,7.0,0.57,72.77,1.27,'1111122,1111122,1111122' 
COMPS,ioos:station:USF.COMPS:TAR:1,2014-04-01T12:54:00Z,28.1560,-82.7580,7.0,0.5,47.0,0.88,'1111122,1111122,1111122' 
COMPS,ioos:station:USF.COMPS:TAR:1,2014-04-01T13:00:00Z,28.1560,-82.7580,7.0,0.43,35.66,0.97,'1111122,1111122,1111122' 
COMPS,ioos:station:USF.COMPS:TAR:1,2014-04-01T13:06:00Z,28.1560,-82.7580,7.0,0.96,76.47,2.35,'1111122,1111122,1111122' 
COMPS,ioos:station:USF.COMPS:TAR:1,2014-04-01T13:12:00Z,28.1560,-82.7580,7.0,0.54,49.66,1.17,'1111122,1111122,1111122' 
COMPS,ioos:station:USF.COMPS:TAR:1,2014-04-01T13:18:00Z,28.1560,-82.7580,7.0,0.73,78.15,1.86,'1111122,1111122,1111122' 
COMPS,ioos:station:USF.COMPS:TAR:1,2014-04-01T13:24:00Z,28.1560,-82.7580,7.0,0.81,105.34,2.25,'1111122,1111122,1111122' 
COMPS,ioos:station:USF.COMPS:TAR:1,2014-04-01T13:30:00Z,28.1560,-82.7580,7.0,1.21,96.79,2.35,'1111122,1111122,1111122' 
COMPS,ioos:station:USF.COMPS:TAR:1,2014-04-01T13:36:00Z,28.1560,-82.7580,7.0,0.86,99.89,1.86,'1111122,1111122,1111122' 
COMPS,ioos:station:USF.COMPS:TAR:1,2014-04-01T13:42:00Z,28.1560,-82.7580,7.0,1.06,114.51,2.05,'1111122,1111122,1111122' 
COMPS,ioos:station:USF.COMPS:TAR:1,2014-04-01T13:48:00Z,28.1560,-82.7580,7.0,0.9,107.04,2.05,'1111122,1111122,1111122' 
COMPS,ioos:station:USF.COMPS:TAR:1,2014-04-01T13:54:00Z,28.1560,-82.7580,7.0,0.8,116.1,1.95,'1111122,1111122,1111122' 
COMPS,ioos:station:USF.COMPS:TAR:1,2014-04-01T14:00:00Z,28.1560,-82.7580,7.0,1.14,103.7,2.35,'1111122,1111122,1111122' 
COMPS,ioos:station:USF.COMPS:TAR:1,2014-04-01T14:06:00Z,28.1560,-82.7580,7.0,0.97,137.78,1.86,'1111122,1111122,1111122' 
COMPS,ioos:station:USF.COMPS:TAR:1,2014-04-01T14:12:00Z,28.1560,-82.7580,7.0,0.86,128.21,1.95,'1111122,1111122,1111122' 
COMPS,ioos:station:USF.COMPS:TAR:1,2014-04-01T14:18:00Z,28.1560,-82.7580,7.0,1.29,98.84,2.05,'1111122,1111122,1111122' 
COMPS,ioos:station:USF.COMPS:TAR:1,2014-04-01T14:24:00Z,28.1560,-82.7580,7.0,0.94,107.06,1.76,'1111122,1111122,1111122' 
COMPS,ioos:station:USF.COMPS:TAR:1,2014-04-01T14:30:00Z,28.1560,-82.7580,7.0,1.05,77.12,1.95,'1111122,1111122,1111122' 
COMPS,ioos:station:USF.COMPS:TAR:1,2014-04-01T14:36:00Z,28.1560,-82.7580,7.0,0.98,92.62,1.76,'1111122,1111122,1111122' 
COMPS,ioos:station:USF.COMPS:TAR:1,2014-04-01T14:42:00Z,28.1560,-82.7580,7.0,0.91,124.91,2.35,'1111122,1111122,1111122' 
COMPS,ioos:station:USF.COMPS:TAR:1,2014-04-01T14:48:00Z,28.1560,-82.7580,7.0,1.06,83.12,2.15,'1111122,1111122,1111122' 
COMPS,ioos:station:USF.COMPS:TAR:1,2014-04-01T14:54:00Z,28.1560,-82.7580,7.0,1.21,115.34,2.45,'1111122,1111122,1111122' 
COMPS,ioos:station:USF.COMPS:TAR:1,2014-04-01T15:00:00Z,28.1560,-82.7580,7.0,1.39,119.52,2.84,'1111122,1111122,1111122' 
COMPS,ioos:station:USF.COMPS:TAR:1,2014-04-01T15:06:00Z,28.1560,-82.7580,7.0,1.73,153.64,4.31,'1111122,1111122,1111122' 
COMPS,ioos:station:USF.COMPS:TAR:1,2014-04-01T15:12:00Z,28.1560,-82.7580,7.0,1.77,152.04,3.52,'1111122,1111122,1111122' 
COMPS,ioos:station:USF.COMPS:TAR:1,2014-04-01T15:18:00Z,28.1560,-82.7580,7.0,1.12,81.91,2.54,'1111122,1111122,1111122' 
COMPS,ioos:station:USF.COMPS:TAR:1,2014-04-01T15:24:00Z,28.1560,-82.7580,7.0,1.94,161.68,3.72,'1111122,1111122,1111122' 
COMPS,ioos:station:USF.COMPS:TAR:1,2014-04-01T15:30:00Z,28.1560,-82.7580,7.0,1.26,135.29,2.45,'1111122,1111122,1111122' 
COMPS,ioos:station:USF.COMPS:TAR:1,2014-04-01T15:36:00Z,28.1560,-82.7580,7.0,0.91,160.65,2.35,'1111122,1111122,1111122' 
COMPS,ioos:station:USF.COMPS:TAR:1,2014-04-01T15:42:00Z,28.1560,-82.7580,7.0,1.65,171.29,3.52,'1111122,1111122,1111122' 
COMPS,ioos:station:USF.COMPS:TAR:1,2014-04-01T15:48:00Z,28.1560,-82.7580,7.0,1.51,216.13,2.74,'1111122,1111122,1111122' 
COMPS,ioos:station:USF.COMPS:TAR:1,2014-04-01T15:54:00Z,28.1560,-82.7580,7.0,0.6,229.0,1.27,'1111122,1111122,1111122' 
COMPS,ioos:station:USF.COMPS:TAR:1,2014-04-01T16:00:00Z,28.1560,-82.7580,7.0,0.93,323.69,1.56,'1111122,1111122,1111122' 
COMPS,ioos:station:USF.COMPS:TAR:1,2014-04-01T16:06:00Z,28.1560,-82.7580,7.0,0.73,170.97,1.46,'1111122,1111122,1111122' 
COMPS,ioos:station:USF.COMPS:TAR:1,2014-04-01T16:12:00Z,28.1560,-82.7580,7.0,0.24,262.67,1.07,'1111122,1111122,1111122' 
COMPS,ioos:station:USF.COMPS:TAR:1,2014-04-01T16:18:00Z,28.1560,-82.7580,7.0,0.77,52.56,1.86,'1111122,1111122,1111122' 
COMPS,ioos:station:USF.COMPS:TAR:1,2014-04-01T16:24:00Z,28.1560,-82.7580,7.0,1.05,74.44,2.35,'1111122,1111122,1111122' 
COMPS,ioos:station:USF.COMPS:TAR:1,2014-04-01T16:30:00Z,28.1560,-82.7580,7.0,0.79,70.57,1.56,'1111122,1111122,1111122' 
COMPS,ioos:station:USF.COMPS:TAR:1,2014-04-01T16:36:00Z,28.1560,-82.7580,7.0,0.8,121.16,1.66,'1111122,1111122,1111122' 
COMPS,ioos:station:USF.COMPS:TAR:1,2014-04-01T16:42:00Z,28.1560,-82.7580,7.0,1.46,301.07,3.23,'1111122,1111122,1111122' 
COMPS,ioos:station:USF.COMPS:TAR:1,2014-04-01T16:48:00Z,28.1560,-82.7580,7.0,2.37,282.2,4.01,'1111122,1111122,1111122' 
COMPS,ioos:station:USF.COMPS:TAR:1,2014-04-01T16:54:00Z,28.1560,-82.7580,7.0,2.66,289.54,4.21,'1111122,1111122,1111122' 
COMPS,ioos:station:USF.COMPS:TAR:1,2014-04-01T17:00:00Z,28.1560,-82.7580,7.0,2.47,283.98,4.31,'1111122,1111122,1111122' 
COMPS,ioos:station:USF.COMPS:TAR:1,2014-04-01T17:06:00Z,28.1560,-82.7580,7.0,2.7,307.29,4.6,'1111122,1111122,1111122' 
COMPS,ioos:station:USF.COMPS:TAR:1,2014-04-01T17:12:00Z,28.1560,-82.7580,7.0,2.91,309.02,3.91,'1111122,1111122,1111122' 
COMPS,ioos:station:USF.COMPS:TAR:1,2014-04-01T17:18:00Z,28.1560,-82.7580,7.0,2.35,297.22,3.52,'1111122,1111122,1111122' 
COMPS,ioos:station:USF.COMPS:TAR:1,2014-04-01T17:24:00Z,28.1560,-82.7580,7.0,2.65,308.24,4.21,'1111122,1111122,1111122' 
COMPS,ioos:station:USF.COMPS:TAR:1,2014-04-01T17:30:00Z,28.1560,-82.7580,7.0,2.65,304.4,3.91,'1111122,1111122,1111122' 
COMPS,ioos:station:USF.COMPS:TAR:1,2014-04-01T17:36:00Z,28.1560,-82.7580,7.0,2.61,299.49,4.31,'1111122,1111122,1111122' 
COMPS,ioos:station:USF.COMPS:TAR:1,2014-04-01T17:42:00Z,28.1560,-82.7580,7.0,2.67,304.06,4.41,'1111122,1111122,1111122' 
COMPS,ioos:station:USF.COMPS:TAR:1,2014-04-01T17:48:00Z,28.1560,-82.7580,7.0,3.1,308.0,4.21,'1111122,1111122,1111122' 
COMPS,ioos:station:USF.COMPS:TAR:1,2014-04-01T17:54:00Z,28.1560,-82.7580,7.0,2.64,310.47,3.91,'1111122,1111122,1111122' 
COMPS,ioos:station:USF.COMPS:TAR:1,2014-04-01T18:00:00Z,28.1560,-82.7580,7.0,2.68,299.4,4.01,'1111122,1111122,1111122' 
COMPS,ioos:station:USF.COMPS:TAR:1,2014-04-01T18:06:00Z,28.1560,-82.7580,7.0,2.55,304.84,4.5,'1111122,1111122,1111122' 
COMPS,ioos:station:USF.COMPS:TAR:1,2014-04-01T18:12:00Z,28.1560,-82.7580,7.0,3.14,297.51,4.31,'1111122,1111122,1111122' 
COMPS,ioos:station:USF.COMPS:TAR:1,2014-04-01T18:18:00Z,28.1560,-82.7580,7.0,2.89,296.4,4.5,'1111122,1111122,1111122' 
COMPS,ioos:station:USF.COMPS:TAR:1,2014-04-01T18:24:00Z,28.1560,-82.7580,7.0,2.59,284.35,4.21,'1111122,1111122,1111122' 
COMPS,ioos:station:USF.COMPS:TAR:1,2014-04-01T18:30:00Z,28.1560,-82.7580,7.0,2.77,300.5,3.91,'1111122,1111122,1111122' 
COMPS,ioos:station:USF.COMPS:TAR:1,2014-04-01T18:36:00Z,28.1560,-82.7580,7.0,3.1,317.97,4.9,'1111122,1111122,1111122' 
COMPS,ioos:station:USF.COMPS:TAR:1,2014-04-01T18:42:00Z,28.1560,-82.7580,7.0,2.5,310.07,3.82,'1111122,1111122,1111122' 
COMPS,ioos:station:USF.COMPS:TAR:1,2014-04-01T18:48:00Z,28.1560,-82.7580,7.0,2.94,307.56,4.21,'1111122,1111122,1111122' 
COMPS,ioos:station:USF.COMPS:TAR:1,2014-04-01T18:54:00Z,28.1560,-82.7580,7.0,3.26,308.23,5.29,'1111122,1111122,1111122' 
COMPS,ioos:station:USF.COMPS:TAR:1,2014-04-01T19:00:00Z,28.1560,-82.7580,7.0,3.15,314.14,4.99,'1111122,1111122,1111122' 
COMPS,ioos:station:USF.COMPS:TAR:1,2014-04-01T19:06:00Z,28.1560,-82.7580,7.0,2.49,285.77,4.6,'1111122,1111122,1111122' 
COMPS,ioos:station:USF.COMPS:TAR:1,2014-04-01T19:12:00Z,28.1560,-82.7580,7.0,3.39,275.93,4.41,'1111122,1111122,1111122' 
COMPS,ioos:station:USF.COMPS:TAR:1,2014-04-01T19:18:00Z,28.1560,-82.7580,7.0,2.77,280.56,4.6,'1111122,1111122,1111122' 
COMPS,ioos:station:USF.COMPS:TAR:1,2014-04-01T19:24:00Z,28.1560,-82.7580,7.0,2.42,291.29,4.21,'1111122,1111122,1111122' 
COMPS,ioos:station:USF.COMPS:TAR:1,2014-04-01T19:30:00Z,28.1560,-82.7580,7.0,2.27,306.63,3.91,'1111122,1111122,1111122' 
COMPS,ioos:station:USF.COMPS:TAR:1,2014-04-01T19:36:00Z,28.1560,-82.7580,7.0,2.46,305.47,3.62,'1111122,1111122,1111122' 
COMPS,ioos:station:USF.COMPS:TAR:1,2014-04-01T19:42:00Z,28.1560,-82.7580,7.0,2.66,307.77,3.62,'1111122,1111122,1111122' 
COMPS,ioos:station:USF.COMPS:TAR:1,2014-04-01T19:48:00Z,28.1560,-82.7580,7.0,2.62,308.83,3.52,'1111122,1111122,1111122' 
COMPS,ioos:station:USF.COMPS:TAR:1,2014-04-01T19:54:00Z,28.1560,-82.7580,7.0,2.1,304.95,3.33,'1111122,1111122,1111122' 
COMPS,ioos:station:USF.COMPS:TAR:1,2014-04-01T20:00:00Z,28.1560,-82.7580,7.0,2.17,304.8,4.11,'1111122,1111122,1111122' 
COMPS,ioos:station:USF.COMPS:TAR:1,2014-04-01T20:06:00Z,28.1560,-82.7580,7.0,2.19,299.33,3.42,'1111122,1111122,1111122' 
COMPS,ioos:station:USF.COMPS:TAR:1,2014-04-01T20:12:00Z,28.1560,-82.7580,7.0,2.64,288.62,4.01,'1111122,1111122,1111122' 
COMPS,ioos:station:USF.COMPS:TAR:1,2014-04-01T20:18:00Z,28.1560,-82.7580,7.0,2.58,306.38,4.21,'1111122,1111122,1111122' 
COMPS,ioos:station:USF.COMPS:TAR:1,2014-04-01T20:24:00Z,28.1560,-82.7580,7.0,2.71,287.92,4.31,'1111122,1111122,1111122' 
COMPS,ioos:station:USF.COMPS:TAR:1,2014-04-01T20:30:00Z,28.1560,-82.7580,7.0,2.74,306.96,4.11,'1111122,1111122,1111122' 